CZ-4C R/B, 41039

Orbit data source: Space-Track

CZ-4C R/B, 41039 is space debris in SSO originally from a launch on Thu, 26 Nov 2015 UTC launched from the Taiyaun Space Center, China (TSC). Debris objects in space refer to the collection of defunct objects orbiting the Earth. Examples of debris include non-operational satellites, rocket bodies, and fragments generated from explosions, collisions, or faulty payload assembly.

Loading next visibility...
Identifier
41039, 2015-069B
Orbit
SSO
Country
Flag of CNCN / PRC
Related business
Manufacturer
SAST
Mission
Spacecraft
Bus & Motor
CZ-4 STAGE 3, Unknown motor
Mass
~1,000 kg wet, ~1,000 kg dry
Launch date (UTC)
2015-11-26 (11 years ago)
Launch vehicle
Unknown
Launch site
Taiyaun Space Center, China (TSC)
Object type
Payload
Rocket body
Debris
Shape & HBR
Cyl, 2.5 m
Radar Cross Section
14.536 m², Large (>1 m²)

Expand to show TLE details & history
Last TLE update: 2 days ago

TLE from 2 days ago
0 CZ-4C R/B
1 41039U 15069B   26171.45386588  .00007828  00000-0  23933-3 0  9990
2 41039  97.4759 241.4661 0056645 151.5255 208.9102 15.32542076582613
Epoch: 2026-06-20T10:53Z
TLE epoch observation values (Epoch: 2026-06-20T10:53:34.012Z)
Latitude
0.00002°
Longitude
169.40612°
Altitude
505.343 km
Speed
7.593 km/s
True Right ascension
16h 05m 51s
True Declination
0° 00' 00"
Sunlit
Object was in full shadow at epoch
Visualization orbit readout
Latitude
Unknown
Longitude
Unknown
Altitude
Unknown
Speed
Unknown
Apparent Right ascension
Unknown
Apparent Declination
Unknown
Sunlit
N/A
Visualization observer readout
Local Sidereal Time
21:59:04
Azimuth
Unknown
Elevation
Unknown
Doppler factor
Unknown
Orbital elements
Apogee altitude
503.947 km
Perigee altitude
426.419 km
Semi-major axis
6,843.32 km
Eccentricity
0.00566
Inclination
97.4759°
RAAN
241.4661°
Arg. of periapsis
151.5255°
True anomaly
208.59833°
Mean anomaly
208.9102°
Eccentric anomaly
208.75407°
Mean motion
3.83392 °/min
Orbital period
93.9 mins
BSTAR
0.00023933
Loading maneuver chart data...
Computing Atmospheric mass density...
Loading historical data...
Loading historical data...
Loading historical data...
Loading historical data...
Loading historical data...
Loading historical data...
Loading historical data...
Other satellites on launch #69 in the year 2015 (2015-11-26 UTC)

Documentation

Showing up to 5 results
|